SVA725 OPIS-OERK

Flight info

Callsign SVA725
Flight time N/A
Altitude 38000
Route KALMI DCT HANGU G325 PG T385 TAPDO G652 VEKAN/N0488F400 G652 TOKRA DCT ALROK DCT BOSOB/N0503F280 M321 NAGUB
Aircraft B77W/H-SDE2E3FGHIRWXY/L

Departure

Time N/A
Airport Islamabad International Airport (OPIS)

Arrival

Time 2026-05-06 02:56
Airport King Khalid International Airport (OERK)
Time Latitude Longitude Altitude Speed Heading
2026-05-06 02:01 22.18268 51.13298 39784 ft 457 kts 278°
2026-05-06 02:01 22.18856 51.09929 39788 ft 457 kts 278°
2026-05-06 02:02 22.20031 51.03184 39785 ft 457 kts 278°
2026-05-06 02:02 22.21203 50.96440 39787 ft 457 kts 278°
2026-05-06 02:03 22.22373 50.89694 39786 ft 457 kts 278°
2026-05-06 02:03 22.23541 50.82941 39793 ft 457 kts 278°
2026-05-06 02:04 22.24706 50.76187 39785 ft 457 kts 278°
2026-05-06 02:04 22.25867 50.69439 39786 ft 457 kts 278°
2026-05-06 02:05 22.27024 50.62696 39790 ft 457 kts 278°
2026-05-06 02:05 22.28178 50.55953 39789 ft 457 kts 278°
2026-05-06 02:06 22.29329 50.49211 39791 ft 457 kts 278°
2026-05-06 02:06 22.30473 50.42495 39792 ft 457 kts 278°
2026-05-06 02:07 22.31620 50.35737 39794 ft 458 kts 278°
2026-05-06 02:07 22.32768 50.28964 39803 ft 458 kts 277°
2026-05-06 02:08 22.33910 50.22206 39799 ft 458 kts 277°
2026-05-06 02:08 22.35042 50.15484 39800 ft 458 kts 277°
2026-05-06 02:09 22.36181 50.08713 39805 ft 458 kts 277°
2026-05-06 02:09 22.37315 50.01947 39805 ft 458 kts 277°
2026-05-06 02:10 22.38446 49.95181 39804 ft 457 kts 277°
2026-05-06 02:10 22.39574 49.88414 39802 ft 457 kts 277°
2026-05-06 02:11 22.40699 49.81654 39802 ft 457 kts 277°
2026-05-06 02:11 22.41819 49.74897 39803 ft 457 kts 277°
2026-05-06 02:12 22.42939 49.68129 39802 ft 457 kts 277°
2026-05-06 02:12 22.44050 49.61396 39804 ft 458 kts 277°
2026-05-06 02:13 22.45164 49.54624 39808 ft 458 kts 277°
2026-05-06 02:13 22.46284 49.47798 39809 ft 458 kts 277°
2026-05-06 02:14 22.47394 49.41017 39808 ft 458 kts 277°
2026-05-06 02:14 22.48494 49.34275 39808 ft 458 kts 277°
2026-05-06 02:15 22.49607 49.27435 39808 ft 459 kts 277°
2026-05-06 02:15 22.50701 49.20693 39816 ft 458 kts 277°
2026-05-06 02:16 22.51800 49.13908 39809 ft 458 kts 277°
2026-05-06 02:16 22.52895 49.07124 39808 ft 457 kts 277°
2026-05-06 02:17 22.53986 49.00344 39808 ft 457 kts 277°
2026-05-06 02:17 22.55074 48.93572 39811 ft 457 kts 277°
2026-05-06 02:18 22.56157 48.86801 39815 ft 457 kts 277°
2026-05-06 02:18 22.57240 48.80017 39816 ft 457 kts 277°
2026-05-06 02:19 22.58318 48.73245 39826 ft 457 kts 277°
2026-05-06 02:19 22.59396 48.66461 39821 ft 457 kts 277°
2026-05-06 02:20 22.61006 48.56279 39827 ft 458 kts 277°
2026-05-06 02:21 22.62077 48.49490 39828 ft 458 kts 276°
2026-05-06 02:21 22.63151 48.42702 39829 ft 457 kts 276°
2026-05-06 02:22 22.64209 48.35918 39835 ft 457 kts 276°
2026-05-06 02:22 22.65269 48.29123 39832 ft 458 kts 276°
2026-05-06 02:23 22.66327 48.22334 39836 ft 458 kts 276°
2026-05-06 02:23 22.67384 48.15536 39836 ft 457 kts 276°
2026-05-06 02:23 22.67912 48.12127 39342 ft 465 kts 276°
2026-05-06 02:24 22.68478 48.08714 38683 ft 452 kts 281°
2026-05-06 02:24 22.69621 48.05589 37803 ft 443 kts 297°
2026-05-06 02:24 22.71433 48.02955 37074 ft 431 kts 308°
2026-05-06 02:24 22.73594 48.00753 36380 ft 426 kts 319°
2026-05-06 02:25 22.76089 47.99018 35709 ft 426 kts 324°
2026-05-06 02:25 22.78652 47.97360 34941 ft 434 kts 324°
2026-05-06 02:25 22.81282 47.95642 34106 ft 448 kts 323°
2026-05-06 02:25 22.83985 47.93857 33103 ft 461 kts 323°
2026-05-06 02:26 22.86717 47.92038 32079 ft 472 kts 323°
2026-05-06 02:26 22.89577 47.90123 31004 ft 482 kts 324°
2026-05-06 02:26 22.92438 47.88204 30224 ft 484 kts 324°
2026-05-06 02:26 22.95267 47.86304 29392 ft 486 kts 324°
2026-05-06 02:27 22.98181 47.84345 28558 ft 486 kts 324°
2026-05-06 02:27 23.00980 47.82464 27798 ft 470 kts 325°
2026-05-06 02:27 23.03685 47.80648 27084 ft 445 kts 325°
2026-05-06 02:27 23.06260 47.78919 26420 ft 428 kts 325°
2026-05-06 02:28 23.08771 47.77228 25806 ft 425 kts 325°
2026-05-06 02:28 23.11309 47.75513 25179 ft 435 kts 325°
2026-05-06 02:28 23.13911 47.73748 24499 ft 445 kts 326°
2026-05-06 02:28 23.16557 47.71955 23829 ft 452 kts 326°
2026-05-06 02:29 23.19211 47.70158 23067 ft 442 kts 326°
2026-05-06 02:29 23.21752 47.68443 22326 ft 417 kts 326°
2026-05-06 02:29 23.24148 47.66825 21679 ft 396 kts 326°
2026-05-06 02:29 23.26458 47.65261 21086 ft 388 kts 325°
2026-05-06 02:30 23.28758 47.63697 20518 ft 396 kts 325°
2026-05-06 02:30 23.31143 47.62072 19929 ft 412 kts 325°
2026-05-06 02:30 23.33612 47.60391 19282 ft 422 kts 325°
2026-05-06 02:30 23.36072 47.58723 18619 ft 408 kts 325°
2026-05-06 02:31 23.38415 47.57136 17977 ft 385 kts 325°
2026-05-06 02:31 23.40628 47.55634 17350 ft 371 kts 325°
2026-05-06 02:31 23.42804 47.54153 16778 ft 371 kts 325°
2026-05-06 02:31 23.45051 47.52618 16226 ft 390 kts 324°
2026-05-06 02:32 23.47221 47.50822 15989 ft 394 kts 310°
2026-05-06 02:32 23.48884 47.48459 15886 ft 394 kts 301°
2026-05-06 02:32 23.50420 47.45974 15887 ft 399 kts 301°
2026-05-06 02:32 23.52033 47.43478 15884 ft 404 kts 302°
2026-05-06 02:33 23.53681 47.40994 15876 ft 405 kts 303°
2026-05-06 02:33 23.54779 47.39359 15872 ft 404 kts 303°
2026-05-06 02:33 23.58671 47.33605 15878 ft 402 kts 303°
2026-05-06 02:34 23.60310 47.31184 15878 ft 402 kts 303°
2026-05-06 02:34 23.61969 47.28733 15872 ft 401 kts 303°
2026-05-06 02:34 23.63646 47.26255 15872 ft 401 kts 303°
2026-05-06 02:34 23.65276 47.23844 15875 ft 401 kts 303°
2026-05-06 02:35 23.66932 47.21393 15877 ft 401 kts 303°
2026-05-06 02:35 23.68583 47.18946 15874 ft 401 kts 303°
2026-05-06 02:35 23.70237 47.16494 15880 ft 401 kts 304°
2026-05-06 02:35 23.71885 47.14049 15877 ft 400 kts 304°
2026-05-06 02:36 23.73533 47.11604 15872 ft 399 kts 304°
2026-05-06 02:36 23.75174 47.09170 15874 ft 398 kts 304°
2026-05-06 02:36 23.76819 47.06727 15874 ft 398 kts 304°
2026-05-06 02:36 23.78452 47.04301 15878 ft 397 kts 304°
2026-05-06 02:37 23.80087 47.01871 15878 ft 397 kts 304°
2026-05-06 02:37 23.81719 46.99443 15879 ft 396 kts 304°
2026-05-06 02:37 23.83385 46.97101 15596 ft 385 kts 311°
2026-05-06 02:37 23.85503 46.95398 14642 ft 379 kts 334°
2026-05-06 02:38 23.88054 46.94805 13578 ft 377 kts 358°
2026-05-06 02:38 23.90655 46.95116 12353 ft 374 kts
2026-05-06 02:38 23.93212 46.95575 11092 ft 375 kts
2026-05-06 02:38 23.94994 46.95883 10596 ft 387 kts
2026-05-06 02:39 23.97614 46.96341 10358 ft 386 kts
2026-05-06 02:39 24.00211 46.96801 10069 ft 366 kts
2026-05-06 02:39 24.02698 46.97245 9366 ft 352 kts
2026-05-06 02:39 24.05020 46.97659 9152 ft 326 kts
2026-05-06 02:40 24.07190 46.98045 9005 ft 306 kts
2026-05-06 02:40 24.09288 46.98416 8963 ft 306 kts
2026-05-06 02:40 24.11384 46.98786 8962 ft 305 kts
2026-05-06 02:40 24.13485 46.99157 8957 ft 305 kts
2026-05-06 02:41 24.15578 46.99527 8955 ft 305 kts
2026-05-06 02:41 24.17669 46.99896 8958 ft 304 kts
2026-05-06 02:41 24.19763 47.00266 8956 ft 303 kts
2026-05-06 02:41 24.21839 47.00633 8954 ft 303 kts
2026-05-06 02:42 24.23928 47.01002 8948 ft 303 kts
2026-05-06 02:42 24.25998 47.01369 8948 ft 302 kts
2026-05-06 02:42 24.28074 47.01736 8940 ft 302 kts
2026-05-06 02:42 24.30148 47.02103 8930 ft 302 kts
2026-05-06 02:43 24.32216 47.02469 8932 ft 301 kts
2026-05-06 02:43 24.34283 47.02835 8924 ft 301 kts
2026-05-06 02:43 24.36354 47.03201 8919 ft 301 kts
2026-05-06 02:43 24.38413 47.03541 8899 ft 296 kts
2026-05-06 02:44 24.40404 47.03230 8782 ft 291 kts 334°
2026-05-06 02:44 24.42087 47.02075 8764 ft 281 kts 326°
2026-05-06 02:44 24.43773 47.00974 8727 ft 282 kts 330°
2026-05-06 02:44 24.45490 46.99936 8737 ft 282 kts 330°
2026-05-06 02:45 24.47205 46.98882 8734 ft 283 kts 330°
2026-05-06 02:45 24.48923 46.97817 8730 ft 284 kts 330°
2026-05-06 02:45 24.50641 46.96745 8738 ft 284 kts 330°
2026-05-06 02:45 24.52360 46.95668 8729 ft 285 kts 330°
2026-05-06 02:46 24.54082 46.94588 8734 ft 285 kts 330°
2026-05-06 02:46 24.55776 46.93524 8699 ft 280 kts 330°
2026-05-06 02:46 24.57448 46.92475 8323 ft 276 kts 330°
2026-05-06 02:46 24.59115 46.91428 7848 ft 277 kts 330°
2026-05-06 02:47 24.60794 46.90374 7773 ft 274 kts 330°
2026-05-06 02:47 24.62465 46.89325 7838 ft 279 kts 330°
2026-05-06 02:47 24.64129 46.88280 7815 ft 275 kts 330°
2026-05-06 02:47 24.65703 46.87291 7784 ft 246 kts 330°
2026-05-06 02:48 24.67127 46.86395 7558 ft 225 kts 330°
2026-05-06 02:48 24.68424 46.85579 7311 ft 205 kts 330°
2026-05-06 02:48 24.69609 46.84834 7063 ft 188 kts 331°
2026-05-06 02:48 24.70762 46.84262 6741 ft 174 kts 343°
2026-05-06 02:49 24.71873 46.83881 6496 ft 163 kts 345°
2026-05-06 02:49 24.72936 46.83519 6214 ft 158 kts 345°
2026-05-06 02:49 24.73977 46.83160 5959 ft 156 kts 345°
2026-05-06 02:49 24.75013 46.82799 5703 ft 157 kts 345°
2026-05-06 02:50 24.76058 46.82431 5377 ft 159 kts 345°
2026-05-06 02:50 24.77116 46.82055 4974 ft 159 kts 346°
2026-05-06 02:50 24.78178 46.81677 4453 ft 161 kts 345°
2026-05-06 02:50 24.79251 46.81293 3892 ft 160 kts 346°
2026-05-06 02:51 24.80246 46.80934 3658 ft 146 kts 347°
2026-05-06 02:51 24.81192 46.80518 3599 ft 146 kts 341°
2026-05-06 02:51 24.82104 46.80020 3553 ft 145 kts 338°
2026-05-06 02:51 24.82981 46.79496 3567 ft 145 kts 337°
2026-05-06 02:52 24.83851 46.78954 3550 ft 142 kts 336°
2026-05-06 02:52 24.84701 46.78419 3548 ft 140 kts 336°
2026-05-06 02:52 24.85549 46.77884 3557 ft 141 kts 336°
2026-05-06 02:52 24.86399 46.77346 3560 ft 141 kts 336°
2026-05-06 02:53 24.87255 46.76804 3568 ft 142 kts 336°
2026-05-06 02:53 24.88122 46.76257 3400 ft 142 kts 335°
2026-05-06 02:53 24.88952 46.75729 3218 ft 134 kts 335°
2026-05-06 02:53 24.89750 46.75224 3070 ft 132 kts 335°
2026-05-06 02:54 24.90554 46.74716 2899 ft 135 kts 334°
2026-05-06 02:54 24.91373 46.74196 2736 ft 137 kts 333°
2026-05-06 02:54 24.92195 46.73674 2559 ft 138 kts 330°
2026-05-06 02:54 24.93005 46.73144 2376 ft 130 kts 329°
2026-05-06 02:55 24.93802 46.72665 2249 ft 136 kts 330°
2026-05-06 02:55 24.94614 46.72147 2084 ft 137 kts 328°
2026-05-06 02:55 24.95392 46.71669 2048 ft 115 kts 329°
2026-05-06 02:55 24.95940 46.71310 2044 ft 65 kts 330°
2026-05-06 02:56 24.96310 46.71066 2043 ft 57 kts 328°
2026-05-06 02:56 24.96509 46.70855 2039 ft 28 kts 297°
2026-05-06 02:56 24.96525 46.70803 2032 ft 0 kts 283°
2026-05-06 02:57 24.96525 46.70802 2032 ft 0 kts 283°
2026-05-06 02:57 24.96526 46.70797 2034 ft 1 kts 283°
2026-05-06 02:57 24.96528 46.70788 2036 ft 1 kts 283°
2026-05-06 02:58 24.96531 46.70775 2040 ft 2 kts 283°
2026-05-06 02:58 24.96534 46.70758 2037 ft 3 kts 281°
2026-05-06 02:58 24.96536 46.70733 2036 ft 4 kts 268°
2026-05-06 02:58 24.96526 46.70704 2042 ft 4 kts 245°
2026-05-06 02:59 24.96512 46.70676 2042 ft 4 kts 241°
2026-05-06 02:59 24.96498 46.70647 2041 ft 4 kts 240°
2026-05-06 02:59 24.96483 46.70619 2040 ft 4 kts 240°
2026-05-06 02:59 24.96469 46.70591 2040 ft 4 kts 239°
2026-05-06 03:00 24.96451 46.70558 2035 ft 7 kts 239°
2026-05-06 03:00 24.96410 46.70486 2041 ft 14 kts 239°
2026-05-06 03:00 24.96361 46.70390 2042 ft 14 kts 240°
2026-05-06 03:00 24.96314 46.70332 2041 ft 7 kts 192°
2026-05-06 03:01 24.96266 46.70318 2040 ft 6 kts 198°
2026-05-06 03:01 24.96245 46.70310 2037 ft 1 kts 200°
2026-05-06 03:01 24.96237 46.70307 2037 ft 1 kts 200°
2026-05-06 03:01 24.96231 46.70304 2037 ft 1 kts 200°
2026-05-06 03:02 24.96228 46.70303 2037 ft 1 kts 200°
2026-05-06 03:02 24.96224 46.70301 2037 ft 0 kts 200°
2026-05-06 03:02 24.96221 46.70300 2037 ft 1 kts 200°
2026-05-06 03:02 24.96219 46.70299 2037 ft 0 kts 200°